USA 153

Last updated on Mon Jul 07 2025 00:02:42 GMT+0000 (Coordinated Universal Time)

1 26575U 00065A 25187.45443181 -.00000318 00000+0 00000+0 0 9990 2 26575 11.0242 38.1786 0001575 39.1541 145.3059 1.00275214 29461
UTC large
Height (km)
Speed (km/s)
/
Latitude / Longitude
Inclination (degrees)
Orbital Period (minutes)
Azimuth
Elevation
Range (km)
Doppler Factor

Next 0 passes for location: London (51.5072 / 0.1276)

Sorry there are no passes over London.